Location: Cantarrana
(10.3575°N, 66.9340°W)
Time: 15:06:32
(UTC+00:00)

Cosmos 1538 Rocket - Pass Details

Date: 08 December 2021
Orbit: 753 x 791 km, 74.0° (Epoch: 20 January)

Event Time Altitude Azimuth Distance (km) Brightness Sun altitude
Rises 23:38:35 0° 200° (SSW) 3,276 7.9 -22.0°
Reaches altitude 10° 23:41:00 10° 204° (SSW) 2,348 7.1 -22.6°
Maximum altitude 23:46:16 60° 283° (WNW) 900 4.5 -23.8°
Enters shadow 23:49:25 24° 355° (N) 1,580 5.4 -24.5°
